sat.trackr.live / text

‹ back to catalog

STARLINK-35046

NORAD 65701 · 2025-212AB

PAYLOAD ACTIVE UNKNOWN

§ Identity

Operator
Country
US
Launch date
2025-09-21
Launch site
AFETR
Launch vehicle
Mass (kg)
RCS (m²)

Purposes: comms

External: N2YO · Heavens-Above · Gunter

§ Orbital elements

Epoch: 2026-05-24T23:38:20.952672Z

Period
94.11 min
Inclination
53.1591°
Eccentricity
0.0001076
Mean motion
15.30187226 rev/d
Perigee alt
474.5 km
Apogee alt
476.0 km
Semi-major
6,853.4 km
B*
-2.8187e-4
RAAN
351.3592°
Arg perigee
80.4765°
Mean anomaly
279.6358°
Rev number
3,892

§ Raw data

STARLINK-350461 65701U 25212AB  26144.98496473 -.00008694  00000+0 -28187-3 0  99952 65701  53.1591 351.3592 0001076  80.4765 279.6358 15.30187226 38924

JSON: /api/v1/satellites/65701 · /tle

For live sub-satellite position, see the globe view (requires WebGL).

§ Visibility from observer

Set your observer location to see the next 7 days of passes ≥ 10°. The values pass through the URL so the page stays shareable.

No JS? Fill the form by hand. The geolocation button needs JavaScript.